Location: Newark
(44.6028°N, 124.0883°W)
Time: 10:37:47
(UTC+00:00)

Vanguard 1 - Pass Details

Date: 28 October 2019
Orbit: 652 x 3831 km, 34.2° (Epoch: 18 November)

Event Time Altitude Azimuth Distance (km) Brightness Sun altitude
Rises 03:16:14 0° 254° (WSW) 3,619 14.2 -22.6°
Reaches altitude 10° 03:18:27 10° 247° (WSW) 2,908 13.3 -23.0°
Maximum altitude 03:25:12 44° 177° (S) 2,005 11.5 -24.2°
Enters shadow 03:29:50 31° 129° (SE) 2,929 12.0 -25.0°
Drops below altitude 10° 03:37:08 10° 111° (ESE) 5,066 - -26.3°
Sets 03:42:25 0° 107° (ESE) 6,601 - -27.2°
